| time (UTC) | temp F | wind direction | speed knots | gust knots | rain 1hr in | rain 24hr in | rain mn in | humidity % | barometer mb |
| 20260901191037 | 70 | 270 | 2.6 | 8.7 | 0.00 | 0.00 | 0.00 | 71 | 1011.3 |
| 20260901190019 | 70 | 270 | 4.3 | 10.4 | 0.00 | 0.00 | 0.00 | 72 | 1011.1 |
| 20260901185016 | 69 | 270 | 4.3 | 11.3 | 0.00 | 0.00 | 0.00 | 71 | 1011.2 |
| 20260901184016 | 70 | 293 | 4.3 | 11.3 | 0.00 | 0.00 | 0.00 | 69 | 1011.3 |
| 20260901183017 | 70 | 293 | 4.3 | 10.4 | 0.00 | 0.00 | 0.00 | 72 | 1011.1 |
| 20260901182017 | 70 | 293 | 5.2 | 9.6 | 0.00 | 0.00 | 0.00 | 71 | 1010.9 |
| 20260901181017 | 70 | 293 | 6.1 | 11.3 | 0.00 | 0.00 | 0.00 | 70 | 1011.0 |
| 20260901180017 | 70 | 293 | 5.2 | 13.0 | 0.00 | 0.00 | 0.00 | 69 | 1011.1 |
| 20260901175016 | 70 | 270 | 6.1 | 13.9 | 0.00 | 0.00 | 0.00 | 71 | 1011.0 |
| 20260901174018 | 70 | 270 | 5.2 | 11.3 | 0.00 | 0.00 | 0.00 | 72 | 1011.1 |
| 20260901173016 | 69 | 270 | 6.1 | 11.3 | 0.00 | 0.00 | 0.00 | 71 | 1011.0 |
| 20260901172017 | 69 | 270 | 6.1 | 12.2 | 0.00 | 0.00 | 0.00 | 73 | 1010.9 |
| 20260901171016 | 69 | 270 | 5.2 | 12.2 | 0.00 | 0.00 | 0.00 | 73 | 1010.9 |
| 20260901170016 | 68 | 270 | 5.2 | 13.0 | 0.00 | 0.00 | 0.00 | 73 | 1010.8 |
| 20260901165703 | 68 | 270 | 6.1 | 12.2 | 0.00 | 0.00 | 0.00 | 74 | 1010.7 |
| 20260901010017 | 70 | 248 | 9.6 | 20.9 | 0.00 | 0.50 | 0.48 | 68 | 1003.9 |
| 20260901005017 | 70 | 248 | 11.3 | 21.7 | 0.00 | 0.50 | 0.48 | 67 | 1003.4 |
| 20260901004038 | 70 | 248 | 10.4 | 20.9 | 0.00 | 0.50 | 0.48 | 67 | 1003.4 |
| 20260901003057 | 70 | 248 | 12.2 | 25.2 | 0.00 | 0.50 | 0.48 | 68 | 1003.5 |
| 20260901002037 | 73 | 248 | 11.3 | 21.7 | 0.00 | 0.50 | 0.48 | 62 | 1003.3 |
| 20260901001017 | 74 | 248 | 11.3 | 20.0 | 0.00 | 0.50 | 0.48 | 60 | 1003.0 |
| 20260901000017 | 75 | 225 | 7.8 | 20.0 | 0.00 | 0.50 | 0.48 | 58 | 1002.8 |
| 20260831235037 | 75 | 248 | 4.3 | 13.9 | 0.00 | 0.50 | 0.48 | 57 | 1002.5 |
| 20260831234017 | 76 | 225 | 7.0 | 16.5 | 0.00 | 0.50 | 0.48 | 54 | 1002.4 |
| 20260831233017 | 76 | 225 | 7.0 | 17.4 | 0.00 | 0.50 | 0.48 | 53 | 1002.5 |
| 20260831232017 | 77 | 225 | 8.7 | 18.2 | 0.00 | 0.50 | 0.48 | 51 | 1002.5 |
| 20260831231024 | 78 | 225 | 12.2 | 26.9 | 0.00 | 0.50 | 0.48 | 48 | 1002.2 |
| 20260831230059 | 77 | 203 | 11.3 | 22.6 | 0.00 | 0.50 | 0.48 | 49 | 1002.0 |
| 20260831225017 | 77 | 203 | 10.4 | 20.0 | 0.00 | 0.50 | 0.48 | 48 | 1002.0 |
| 20260831224017 | 77 | 203 | 8.7 | 25.2 | 0.00 | 0.50 | 0.48 | 48 | 1001.9 |
| 20260831223017 | 77 | 203 | 10.4 | 20.0 | 0.00 | 0.50 | 0.48 | 48 | 1002.1 |
| 20260831222017 | 77 | 203 | 11.3 | 22.6 | 0.00 | 0.50 | 0.48 | 48 | 1002.1 |
| 20260831221017 | 78 | 203 | 12.2 | 27.8 | 0.00 | 0.50 | 0.48 | 48 | 1002.2 |
| 20260831220017 | 78 | 203 | 13.0 | 28.7 | 0.00 | 0.50 | 0.48 | 48 | 1002.3 |
| 20260831215024 | 77 | 203 | 9.6 | 23.5 | 0.00 | 0.50 | 0.48 | 48 | 1002.3 |
| 20260831214017 | 77 | 225 | 8.7 | 20.9 | 0.00 | 0.50 | 0.48 | 49 | 1002.5 |
| 20260831213017 | 77 | 203 | 8.7 | 19.1 | 0.00 | 0.50 | 0.48 | 48 | 1002.4 |
| 20260831212017 | 77 | 203 | 10.4 | 23.5 | 0.00 | 0.50 | 0.48 | 47 | 1002.7 |
| 20260831211017 | 77 | 203 | 10.4 | 21.7 | 0.00 | 0.50 | 0.48 | 46 | 1002.9 |
| 20260831210037 | 77 | 203 | 13.0 | 26.9 | 0.00 | 0.50 | 0.48 | 46 | 1002.9 |
| 20260831205017 | 77 | 203 | 10.4 | 22.6 | 0.00 | 0.50 | 0.48 | 45 | 1002.8 |
| 20260831204017 | 78 | 225 | 12.2 | 22.6 | 0.00 | 0.50 | 0.48 | 43 | 1002.9 |
| 20260831203017 | 78 | 225 | 11.3 | 23.5 | 0.00 | 0.50 | 0.48 | 43 | 1003.0 |
| 20260831202018 | 77 | 203 | 10.4 | 25.2 | 0.00 | 0.50 | 0.48 | 43 | 1002.9 |
| 20260831201017 | 77 | 203 | 9.6 | 20.0 | 0.00 | 0.50 | 0.48 | 45 | 1003.1 |
| 20260831200017 | 77 | 203 | 12.2 | 23.5 | 0.00 | 0.50 | 0.48 | 45 | 1003.1 |
| 20260831195017 | 78 | 203 | 11.3 | 25.2 | 0.00 | 0.50 | 0.48 | 43 | 1003.2 |
| 20260831194017 | 78 | 203 | 9.6 | 23.5 | 0.00 | 0.50 | 0.48 | 44 | 1003.4 |
| 20260831193018 | 78 | 203 | 11.3 | 26.1 | 0.00 | 0.50 | 0.48 | 45 | 1003.5 |
| 20260831192017 | 77 | 225 | 12.2 | 23.5 | 0.00 | 0.50 | 0.48 | 52 | 1003.7 |